Regional Weather Roundup
Issued by NWS Cleveland, OH

Home | Current Version | Previous Version | Graphics & Text | Print | Product List | Glossary Off
Versions: 1 2 3 4 5 6 7 8 9 10 11 12 13 14 15 16 17 18 19 20 21 22 23 24 25 26 27 28 29 30 31 32 33 34 35 36 37 38 39 40 41 42 43 44 45 46 47 48 49 50

000
ASUS41 KCLE 190210
RWRCLE
OHIO REGIONAL WEATHER ROUNDUP
NATIONAL WEATHER SERVICE WILMINGTON, OH
1000 PM EDT FRI APR 18 2014

NOTE: "FAIR" INDICATES FEW OR NO CLOUDS BELOW 12,000 FEET WITH NO
SIGNIFICANT WEATHER AND/OR OBSTRUCTIONS TO VISIBILITY.

OHZ001>008-015>018-024>027-034-035-043-044-190300-
   NORTHWEST OHIO

CITY           SKY/WX    TMP DP  RH WIND       PRES   REMARKS
DEFIANCE       CLEAR     53  34  48 N7        30.27R
FINDLAY        CLEAR     56  41  57 NE9       30.24R
TOLEDO EXPRESS CLEAR     49  42  77 E6        30.27R
TOLEDO METCALF CLEAR     49  42  77 E5        30.28R
LIMA           CLEAR     55  39  54 NW5       30.24R
$$

OHZ009>014-019>023-028>033-038-089-190300-
   NORTHEAST OHIO

CITY           SKY/WX    TMP DP  RH WIND       PRES   REMARKS
CLE-HOPKINS    MOCLDY    50  41  71 NE14      30.29R
CLE-LAKEFRONT  MOCLDY    49  43  80 NE9       30.26R
CUY CO. ARPT   MOCLDY    48  41  76 E9        30.28R
LORAIN-ELYRIA  PTCLDY    49  40  71 E8        30.27R
ASHTABULA      MOCLDY    47  40  76 CALM      30.28R
AKRON-CANTON   PTCLDY    55  39  54 N6        30.24R
WOOSTER        CLEAR     50  41  71 N6        30.24R
MANSFIELD      PTCLDY    54  42  64 N6        30.24R
YOUNGSTOWN     PTCLDY    50  39  66 N8        30.25R
$$

OHZ042-051>053-060>062-070>072-077>081-190300-
  SOUTHWEST OHIO

CITY           SKY/WX    TMP DP  RH WIND       PRES   REMARKS
CINC-COVINGTON MOCLDY    60  38  43 N3        30.23R
CINC-LUNKEN    PTCLDY    51  45  79 CALM      30.23R
HAMILTON       PTCLDY    55  46  71 CALM      30.24R
DAYTON         PTCLDY    59  39  47 N5        30.25R
WRIGHT-PAT AFB PTCLDY    55  43  62 N2        30.23R
DAYTON GENERAL MOCLDY    62  39  42 N6        30.23R
WILMINGTON     CLOUDY    56  37  49 CALM      30.23R
$$

OHZ036-037-039>041-045>050-054>059-063>069-073>076-082>088-190300-
  CENTRAL AND SOUTHEAST OHIO

CITY           SKY/WX    TMP DP  RH WIND       PRES   REMARKS
COLUMBUS       PTCLDY    60  37  42 CALM      30.23R
OSU AIRPORT    PTCLDY    57  36  45 CALM      30.23R
BOLTON FIELD   PTCLDY    53  41  64 CALM      30.24R
RICKENBACK AFB MOCLDY    60  34  36 CALM      30.23R
NEWARK         PTCLDY    53  42  66 CALM      30.22R
MARION         PTCLDY    57  40  52 NW6       30.23R
LANCASTER      MOCLDY    50  43  77 CALM      30.23R
ZANESVILLE     MOCLDY    57  35  43 N3        30.22R
NEW PHILLY     PTCLDY    53  39  59 CALM      30.23R
$$



USA.gov is the U.S. government's official web portal to all federal, state and local government web resources and services.